Flag for Greenland Weather past 2 weeks in Nuuk, Greenland

Now
5 °F

Overcast.


Feels Like: -4 °F
Forecast: 7 / 13 °F
Wind: 5 mph from South

Location: Godthaab / Nuuk

Current Time: Jan 28, 2015 at 6:43:32 AM

Latest Report: Jan 28, 2015 at 5:50 AM


Visibility: N/A

Pressure: 30.09 "Hg

Humidity: 78%

Dew point: 0 °F

Location of NuukLocation

Historic Weather in Nuuk — Graph

°F

Nuuk temperature yesterday

Maximum temperature yesterday: 9 °F (at 1:50 AM)
Minimum temperature yesterday: 3 °F (at 2:50 PM)
Average temperature yesterday: 5 °F

Past Weeks' High & Low Weather Summary

 TemperatureHumidityPressure
High37 °F (Jan 17, 9:50 PM)100% (Jan 15, 5:50 PM)30.15 "Hg (Jan 15, 5:50 PM)
Low3 °F (Jan 22, 1:50 PM)36% (Jan 25, 8:50 AM)28.62 "Hg (Jan 26, 11:50 AM)
Average12 °F71%29.52 "Hg
* Reported Jan 13 5:50 AM — Jan 28 5:50 AM, Nuuk, Weather by CustomWeather, © 2014

Note: Actual official high and low records may vary slightly from our data, if they occured in-between our weather recording intervals... More about our weather records

Advertising

Nuuk weather history for previous 24 hours

 ConditionsComfort  
Time TempWeatherWind HumidityBarometerVisibility
5:50 AM
Jan 28
5 °FOvercast.5 mph78%30.09 "HgN/A
4:50 AM5 °FOvercast.7 mph78%30.09 "HgN/A
3:50 AM3 °FPartly cloudy.3 mph66%30.07 "HgN/A
2:50 AM5 °FOvercast.5 mph66%30.07 "HgN/A
1:50 AM3 °FPassing clouds.6 mph78%30.04 "HgN/A
12:50 AM3 °FMostly cloudy.8 mph78%30.01 "HgN/A
11:50 PM
Jan 27
3 °FOvercast.9 mph72%30.01 "HgN/A
10:50 PM3 °FOvercast.13 mph66%29.98 "HgN/A
9:50 PM3 °FPassing clouds.13 mph78%29.95 "HgN/A
8:50 PM5 °FSnow flurries. Passing clouds.12 mph66%29.92 "Hg5 mi
7:50 PM5 °FSnow flurries. Passing clouds.7 mph66%29.89 "Hg5 mi
6:50 PM5 °FSnow flurries. Passing clouds.12 mph66%29.89 "HgN/A
5:50 PM5 °FPassing clouds.10 mph51%29.86 "HgN/A
4:50 PM5 °FSnow flurries. Partly cloudy.7 mph60%29.83 "HgN/A
3:50 PM5 °FSnow flurries. More clouds than sun.10 mph60%29.77 "Hg5 mi
2:50 PM3 °FSnow flurries. Mostly cloudy.9 mph78%29.74 "Hg2 mi
1:50 PM5 °FSnow flurries. Mostly cloudy.15 mph78%29.71 "Hg1 mi
12:50 PM5 °FSnow flurries. Mostly cloudy.14 mph60%29.68 "Hg1 mi
11:50 AM5 °FSnow flurries. Mostly cloudy.14 mph66%29.65 "Hg2 mi
10:50 AM5 °FSnow flurries. Partly sunny.14 mph60%29.59 "HgN/A
9:50 AM5 °FSnow flurries. Partly sunny.14 mph78%29.56 "Hg1 mi
9:20 AM5 °FLight mixture of precip. Passing clouds.12 mph72%29.53 "Hg1 mi
7:50 AM5 °FSnow showers. Ice fog.12 mph85%29.47 "Hg1 mi
6:50 AM5 °FSnow showers. Passing clouds.8 mph85%29.42 "Hg3 mi
Weather by CustomWeather, © 2014

See weather overviewHow to use our weather pages